Location: Croydon
(51.3762°N, 0.0982°W)
Time: 01:23:48
(UTC+01:00)

VELOX 1 - Pass Details

Date: 25 April 2019
Orbit: 629 x 644 km, 98.2° (Epoch: 20 May)

Event Time Altitude Azimuth Distance (km) Brightness Sun altitude
Exits shadow 00:19:53 13° 80° (E) 1,842 ? -25.1°
Maximum altitude 00:21:30 15° 55° (NE) 1,703 ? -25.1°
Drops below altitude 10° 00:24:00 10° 21° (NNE) 2,022 ? -25.2°
Sets 00:27:00 0° 358° (N) 2,936 ? -25.2°
